Time,TemperatureF,DewpointF,PressureIn,WindDirection,WindDirectionDegrees,WindSpeedMPH,WindSpeedGustMPH,Humidity,HourlyPrecipIn,Conditions,Clouds,dailyrainin,SoftwareType,DateUTC
2013-04-20 00:01:00,44.0,18.0,-100.00,NE,35,4.0,6.0,35,-99.99,,,-99.99,,2013-04-20 07:01:00,
2013-04-20 00:11:00,44.0,19.0,-100.00,NNE,33,5.0,6.0,36,-99.99,,,-99.99,,2013-04-20 07:11:00,
2013-04-20 00:21:00,44.0,19.0,-100.00,NE,42,5.0,8.0,36,-99.99,,,-99.99,,2013-04-20 07:21:00,
2013-04-20 00:31:00,45.0,18.0,-100.00,NE,51,6.0,9.0,34,-99.99,,,-99.99,,2013-04-20 07:31:00,
2013-04-20 00:42:00,45.0,18.0,-100.00,NE,36,5.0,8.0,33,-99.99,,,-99.99,,2013-04-20 07:42:00,
2013-04-20 00:52:00,43.0,19.0,-100.00,NE,48,6.0,10.0,37,-99.99,,,-99.99,,2013-04-20 07:52:00,
2013-04-20 01:01:00,43.0,19.0,-100.00,NE,42,7.0,10.0,37,-99.99,,,-99.99,,2013-04-20 08:01:00,
2013-04-20 01:11:00,43.0,19.0,-100.00,NE,43,6.0,9.0,38,-99.99,,,-99.99,,2013-04-20 08:11:00,
2013-04-20 01:21:00,43.0,19.0,-100.00,NE,49,6.0,8.0,37,-99.99,,,-99.99,,2013-04-20 08:21:00,
2013-04-20 01:31:00,43.0,18.0,-100.00,NE,50,5.0,9.0,36,-99.99,,,-99.99,,2013-04-20 08:31:00,
2013-04-20 01:42:00,43.0,18.0,-100.00,NE,50,5.0,9.0,36,-99.99,,,-99.99,,2013-04-20 08:42:00,
2013-04-20 01:52:00,42.0,19.0,-100.00,NE,36,4.0,7.0,39,-99.99,,,-99.99,,2013-04-20 08:52:00,
2013-04-20 02:01:00,41.0,19.0,-100.00,NNE,31,4.0,6.0,40,-99.99,,,-99.99,,2013-04-20 09:01:00,
2013-04-20 02:12:00,41.0,19.0,-100.00,NNE,31,4.0,6.0,41,-99.99,,,-99.99,,2013-04-20 09:12:00,
2013-04-20 02:21:00,40.0,18.0,-100.00,NNE,22,5.0,7.0,41,-99.99,,,-99.99,,2013-04-20 09:21:00,
2013-04-20 02:32:00,40.0,18.0,-100.00,NE,39,6.0,8.0,41,-99.99,,,-99.99,,2013-04-20 09:32:00,
2013-04-20 02:43:00,41.0,19.0,-100.00,NE,46,6.0,9.0,40,-99.99,,,-99.99,,2013-04-20 09:43:00,
2013-04-20 02:52:00,41.0,17.0,-100.00,NE,41,6.0,8.0,37,-99.99,,,-99.99,,2013-04-20 09:52:00,
2013-04-20 03:02:00,40.0,18.0,-100.00,NE,35,7.0,9.0,40,-99.99,,,-99.99,,2013-04-20 10:02:00,
2013-04-20 03:12:00,40.0,18.0,-100.00,NE,46,7.0,10.0,41,-99.99,,,-99.99,,2013-04-20 10:12:00,
2013-04-20 03:23:00,40.0,18.0,-100.00,NE,39,6.0,9.0,40,-99.99,,,-99.99,,2013-04-20 10:23:00,
2013-04-20 03:33:00,41.0,17.0,-100.00,NE,43,7.0,10.0,37,-99.99,,,-99.99,,2013-04-20 10:33:00,
2013-04-20 03:42:00,41.0,16.0,-100.00,NE,48,6.0,9.0,36,-99.99,,,-99.99,,2013-04-20 10:42:00,
2013-04-20 03:52:00,43.0,16.0,-100.00,NE,54,8.0,11.0,33,-99.99,,,-99.99,,2013-04-20 10:52:00,
2013-04-20 04:02:00,43.0,15.0,-100.00,NE,53,7.0,10.0,32,-99.99,,,-99.99,,2013-04-20 11:02:00,
2013-04-20 04:12:00,42.0,16.0,-100.00,NE,35,6.0,8.0,35,-99.99,,,-99.99,,2013-04-20 11:12:00,
2013-04-20 04:22:00,41.0,17.0,-100.00,NNE,31,5.0,8.0,38,-99.99,,,-99.99,,2013-04-20 11:22:00,
2013-04-20 04:31:00,40.0,16.0,-100.00,NE,40,5.0,8.0,38,-99.99,,,-99.99,,2013-04-20 11:31:00,
2013-04-20 04:42:00,41.0,17.0,-100.00,NE,43,5.0,9.0,37,-99.99,,,-99.99,,2013-04-20 11:42:00,
2013-04-20 04:52:00,40.0,15.0,-100.00,NE,40,6.0,9.0,36,-99.99,,,-99.99,,2013-04-20 11:52:00,
2013-04-20 05:02:00,41.0,15.0,-100.00,NE,36,7.0,10.0,35,-99.99,,,-99.99,,2013-04-20 12:02:00,
2013-04-20 05:11:00,42.0,14.0,-100.00,NE,45,7.0,10.0,32,-99.99,,,-99.99,,2013-04-20 12:11:00,
2013-04-20 05:22:00,43.0,15.0,-100.00,NE,44,6.0,9.0,32,-99.99,,,-99.99,,2013-04-20 12:22:00,
2013-04-20 05:32:00,42.0,15.0,-100.00,NE,48,6.0,9.0,33,-99.99,,,-99.99,,2013-04-20 12:32:00,
2013-04-20 05:41:00,41.0,15.0,-100.00,NE,40,5.0,7.0,34,-99.99,,,-99.99,,2013-04-20 12:41:00,
2013-04-20 05:51:00,41.0,15.0,-100.00,NE,35,6.0,8.0,35,-99.99,,,-99.99,,2013-04-20 12:51:00,
2013-04-20 06:02:00,42.0,15.0,-100.00,NE,51,7.0,10.0,33,-99.99,,,-99.99,,2013-04-20 13:02:00,
2013-04-20 06:11:00,42.0,15.0,-100.00,NE,41,7.0,10.0,33,-99.99,,,-99.99,,2013-04-20 13:11:00,
2013-04-20 06:21:00,42.0,14.0,-100.00,NE,53,7.0,10.0,32,-99.99,,,-99.99,,2013-04-20 13:21:00,
2013-04-20 06:31:00,44.0,15.0,-100.00,NE,52,7.0,10.0,30,-99.99,,,-99.99,,2013-04-20 13:31:00,
2013-04-20 06:42:00,44.0,15.0,-100.00,NE,52,7.0,10.0,30,-99.99,,,-99.99,,2013-04-20 13:42:00,
2013-04-20 06:52:00,42.0,14.0,-100.00,NE,41,7.0,11.0,32,-99.99,,,-99.99,,2013-04-20 13:52:00,
2013-04-20 07:02:00,42.0,15.0,-100.00,NNE,33,6.0,8.0,33,-99.99,,,-99.99,,2013-04-20 14:02:00,
2013-04-20 07:11:00,42.0,14.0,-100.00,NE,41,4.0,8.0,32,-99.99,,,-99.99,,2013-04-20 14:11:00,
2013-04-20 07:21:00,43.0,15.0,-100.00,NE,50,8.0,11.0,32,-99.99,,,-99.99,,2013-04-20 14:21:00,
2013-04-20 07:31:00,45.0,15.0,-100.00,NE,54,8.0,12.0,29,-99.99,,,-99.99,,2013-04-20 14:31:00,
2013-04-20 07:42:00,46.0,16.0,-100.00,NE,52,6.0,9.0,30,-99.99,,,-99.99,,2013-04-20 14:42:00,
2013-04-20 07:51:00,48.0,16.0,-100.00,NNE,25,3.0,5.0,28,-99.99,,,-99.99,,2013-04-20 14:51:00,
2013-04-20 08:01:00,50.0,17.0,-100.00,NE,48,7.0,11.0,27,-99.99,,,-99.99,,2013-04-20 15:01:00,
2013-04-20 08:11:00,51.0,17.0,-100.00,NE,53,7.0,10.0,26,-99.99,,,-99.99,,2013-04-20 15:11:00,
2013-04-20 08:33:00,58.0,19.0,-100.00,ENE,60,1.0,3.0,22,-99.99,,,-99.99,,2013-04-20 15:33:00,
2013-04-20 08:43:00,61.0,17.0,-100.00,WSW,239,2.0,3.0,18,-99.99,,,-99.99,,2013-04-20 15:43:00,
2013-04-20 09:03:00,65.0,20.0,-100.00,NNE,22,3.0,6.0,18,-99.99,,,-99.99,,2013-04-20 16:03:00,
2013-04-20 09:12:00,66.0,15.0,-100.00,NE,49,3.0,5.0,14,-99.99,,,-99.99,,2013-04-20 16:12:00,
2013-04-20 09:32:00,71.0,14.0,-100.00,NNE,29,0.0,4.0,11,-99.99,,,-99.99,,2013-04-20 16:32:00,
2013-04-20 09:42:00,71.0,16.0,-100.00,SE,142,1.0,4.0,12,-99.99,,,-99.99,,2013-04-20 16:42:00,
2013-04-20 10:02:00,71.0,16.0,-100.00,SW,227,3.0,5.0,12,-99.99,,,-99.99,,2013-04-20 17:02:00,
2013-04-20 10:11:00,72.0,17.0,-100.00,SW,230,3.0,8.0,12,-99.99,,,-99.99,,2013-04-20 17:11:00,
2013-04-20 10:22:00,75.0,17.0,-100.00,NNE,31,6.0,15.0,11,-99.99,,,-99.99,,2013-04-20 17:22:00,
2013-04-20 10:32:00,74.0,16.0,-100.00,ENE,78,7.0,12.0,11,-99.99,,,-99.99,,2013-04-20 17:32:00,
2013-04-20 10:42:00,75.0,15.0,-100.00,ENE,78,6.0,11.0,10,-99.99,,,-99.99,,2013-04-20 17:42:00,
2013-04-20 10:52:00,75.0,15.0,-100.00,NE,56,10.0,16.0,10,-99.99,,,-99.99,,2013-04-20 17:52:00,
2013-04-20 11:02:00,75.0,15.0,-100.00,NE,48,11.0,16.0,10,-99.99,,,-99.99,,2013-04-20 18:02:00,
2013-04-20 11:12:00,75.0,15.0,-100.00,NE,52,12.0,19.0,10,-99.99,,,-99.99,,2013-04-20 18:12:00,
2013-04-20 11:22:00,75.0,15.0,-100.00,ENE,62,11.0,16.0,10,-99.99,,,-99.99,,2013-04-20 18:22:00,
2013-04-20 11:32:00,75.0,15.0,-100.00,NE,54,11.0,19.0,10,-99.99,,,-99.99,,2013-04-20 18:32:00,
2013-04-20 11:41:00,75.0,15.0,-100.00,ENE,67,10.0,17.0,10,-99.99,,,-99.99,,2013-04-20 18:41:00,
2013-04-20 11:52:00,76.0,16.0,-100.00,NE,53,10.0,18.0,10,-99.99,,,-99.99,,2013-04-20 18:52:00,
2013-04-20 12:01:00,76.0,16.0,-100.00,NE,54,11.0,20.0,10,-99.99,,,-99.99,,2013-04-20 19:01:00,
2013-04-20 12:11:00,76.0,13.0,-100.00,ENE,60,10.0,20.0,9,-99.99,,,-99.99,,2013-04-20 19:11:00,
2013-04-20 12:21:00,76.0,13.0,-100.00,NE,46,11.0,17.0,9,-99.99,,,-99.99,,2013-04-20 19:21:00,
2013-04-20 12:31:00,77.0,14.0,-100.00,NE,55,11.0,17.0,9,-99.99,,,-99.99,,2013-04-20 19:31:00,
2013-04-20 12:42:00,77.0,14.0,-100.00,ENE,61,10.0,17.0,9,-99.99,,,-99.99,,2013-04-20 19:42:00,
2013-04-20 12:52:00,77.0,14.0,-100.00,NE,46,12.0,20.0,9,-99.99,,,-99.99,,2013-04-20 19:52:00,
2013-04-20 13:01:00,77.0,14.0,-100.00,ENE,61,11.0,20.0,9,-99.99,,,-99.99,,2013-04-20 20:01:00,
2013-04-20 13:11:00,78.0,15.0,-100.00,NE,52,12.0,18.0,9,-99.99,,,-99.99,,2013-04-20 20:11:00,
2013-04-20 13:21:00,78.0,15.0,-100.00,ENE,58,10.0,17.0,9,-99.99,,,-99.99,,2013-04-20 20:21:00,
2013-04-20 13:32:00,78.0,15.0,-100.00,ENE,63,12.0,21.0,9,-99.99,,,-99.99,,2013-04-20 20:32:00,
2013-04-20 13:42:00,78.0,15.0,-100.00,NE,55,11.0,18.0,9,-99.99,,,-99.99,,2013-04-20 20:42:00,
2013-04-20 13:51:00,78.0,15.0,-100.00,NE,56,12.0,19.0,9,-99.99,,,-99.99,,2013-04-20 20:51:00,
2013-04-20 14:01:00,78.0,15.0,-100.00,ENE,64,12.0,17.0,9,-99.99,,,-99.99,,2013-04-20 21:01:00,
2013-04-20 14:12:00,78.0,15.0,-100.00,NE,53,10.0,18.0,9,-99.99,,,-99.99,,2013-04-20 21:12:00,
2013-04-20 14:21:00,79.0,15.0,-100.00,ENE,74,9.0,17.0,9,-99.99,,,-99.99,,2013-04-20 21:21:00,
2013-04-20 14:32:00,79.0,15.0,-100.00,NE,54,10.0,15.0,9,-99.99,,,-99.99,,2013-04-20 21:32:00,
2013-04-20 14:43:00,79.0,15.0,-100.00,ENE,73,10.0,16.0,9,-99.99,,,-99.99,,2013-04-20 21:43:00,
2013-04-20 14:52:00,80.0,13.0,-100.00,ENE,63,8.0,15.0,8,-99.99,,,-99.99,,2013-04-20 21:52:00,
2013-04-20 15:02:00,80.0,13.0,-100.00,ENE,77,8.0,16.0,8,-99.99,,,-99.99,,2013-04-20 22:02:00,
2013-04-20 15:12:00,80.0,13.0,-100.00,NE,56,9.0,17.0,8,-99.99,,,-99.99,,2013-04-20 22:12:00,
2013-04-20 15:22:00,80.0,13.0,-100.00,ENE,57,11.0,16.0,8,-99.99,,,-99.99,,2013-04-20 22:22:00,
2013-04-20 15:32:00,80.0,13.0,-100.00,NE,55,11.0,18.0,8,-99.99,,,-99.99,,2013-04-20 22:32:00,
2013-04-20 15:42:00,80.0,13.0,-100.00,NE,49,11.0,16.0,8,-99.99,,,-99.99,,2013-04-20 22:42:00,
2013-04-20 15:52:00,80.0,13.0,-100.00,NE,48,10.0,16.0,8,-99.99,,,-99.99,,2013-04-20 22:52:00,
2013-04-20 16:02:00,80.0,13.0,-100.00,NE,48,10.0,16.0,8,-99.99,,,-99.99,,2013-04-20 23:02:00,
2013-04-20 16:11:00,81.0,14.0,-100.00,NE,54,8.0,13.0,8,-99.99,,,-99.99,,2013-04-20 23:11:00,
2013-04-20 16:22:00,81.0,14.0,-100.00,ENE,61,8.0,14.0,8,-99.99,,,-99.99,,2013-04-20 23:22:00,
2013-04-20 16:32:00,81.0,14.0,-100.00,East,95,5.0,11.0,8,-99.99,,,-99.99,,2013-04-20 23:32:00,
2013-04-20 16:41:00,82.0,15.0,-100.00,ENE,69,6.0,11.0,8,-99.99,,,-99.99,,2013-04-20 23:41:00,
2013-04-20 16:52:00,82.0,15.0,-100.00,ENE,62,5.0,13.0,8,-99.99,,,-99.99,,2013-04-20 23:52:00,
2013-04-20 17:01:00,82.0,15.0,-100.00,NNE,30,6.0,11.0,8,-99.99,,,-99.99,,2013-04-21 00:01:00,
2013-04-20 17:11:00,82.0,15.0,-100.00,ENE,59,4.0,8.0,8,-99.99,,,-99.99,,2013-04-21 00:11:00,
2013-04-20 17:21:00,82.0,15.0,-100.00,NE,48,4.0,15.0,8,-99.99,,,-99.99,,2013-04-21 00:21:00,
2013-04-20 17:31:00,81.0,19.0,-100.00,West,277,4.0,7.0,10,-99.99,,,-99.99,,2013-04-21 00:31:00,
2013-04-20 17:41:00,81.0,19.0,-100.00,West,277,4.0,7.0,10,-99.99,,,-99.99,,2013-04-21 00:41:00,
2013-04-20 17:52:00,78.0,23.0,-100.00,SW,225,10.0,15.0,13,-99.99,,,-99.99,,2013-04-21 00:52:00,
2013-04-20 18:01:00,77.0,22.0,-100.00,SW,218,10.0,14.0,13,-99.99,,,-99.99,,2013-04-21 01:01:00,
2013-04-20 18:11:00,77.0,22.0,-100.00,SW,222,9.0,15.0,13,-99.99,,,-99.99,,2013-04-21 01:11:00,
2013-04-20 18:21:00,77.0,24.0,-100.00,SW,225,8.0,12.0,14,-99.99,,,-99.99,,2013-04-21 01:21:00,
2013-04-20 18:31:00,75.0,23.0,-100.00,SW,228,10.0,14.0,14,-99.99,,,-99.99,,2013-04-21 01:31:00,
2013-04-20 18:41:00,75.0,24.0,-100.00,SW,226,8.0,13.0,15,-99.99,,,-99.99,,2013-04-21 01:41:00,
2013-04-20 18:52:00,74.0,23.0,-100.00,SW,228,8.0,11.0,15,-99.99,,,-99.99,,2013-04-21 01:52:00,
2013-04-20 19:01:00,73.0,24.0,-100.00,SW,216,9.0,13.0,16,-99.99,,,-99.99,,2013-04-21 02:01:00,
2013-04-20 19:11:00,72.0,25.0,-100.00,SW,221,8.0,12.0,17,-99.99,,,-99.99,,2013-04-21 02:11:00,
2013-04-20 19:21:00,71.0,24.0,-100.00,SW,216,7.0,10.0,17,-99.99,,,-99.99,,2013-04-21 02:21:00,
2013-04-20 19:31:00,70.0,25.0,-100.00,SW,221,6.0,11.0,18,-99.99,,,-99.99,,2013-04-21 02:31:00,
2013-04-20 19:41:00,69.0,25.0,-100.00,SW,222,7.0,10.0,19,-99.99,,,-99.99,,2013-04-21 02:41:00,
2013-04-20 19:51:00,68.0,24.0,-100.00,SW,220,5.0,9.0,19,-99.99,,,-99.99,,2013-04-21 02:51:00,
2013-04-20 20:01:00,68.0,25.0,-100.00,SW,220,5.0,6.0,20,-99.99,,,-99.99,,2013-04-21 03:01:00,
2013-04-20 20:11:00,67.0,26.0,-100.00,SW,226,4.0,8.0,21,-99.99,,,-99.99,,2013-04-21 03:11:00,
2013-04-20 20:21:00,67.0,26.0,-100.00,SW,228,4.0,5.0,21,-99.99,,,-99.99,,2013-04-21 03:21:00,
2013-04-20 20:32:00,66.0,26.0,-100.00,SW,231,4.0,6.0,22,-99.99,,,-99.99,,2013-04-21 03:32:00,
2013-04-20 20:42:00,66.0,26.0,-100.00,WSW,239,3.0,5.0,22,-99.99,,,-99.99,,2013-04-21 03:42:00,
2013-04-20 20:52:00,64.0,25.0,-100.00,NNW,348,1.0,3.0,23,-99.99,,,-99.99,,2013-04-21 03:52:00,
2013-04-20 21:02:00,61.0,27.0,-100.00,NE,42,3.0,5.0,27,-99.99,,,-99.99,,2013-04-21 04:02:00,
2013-04-20 21:12:00,58.0,27.0,-100.00,NE,47,4.0,6.0,30,-99.99,,,-99.99,,2013-04-21 04:12:00,
2013-04-20 21:22:00,57.0,26.0,-100.00,NE,48,5.0,7.0,30,-99.99,,,-99.99,,2013-04-21 04:22:00,
2013-04-20 21:32:00,56.0,26.0,-100.00,NE,41,5.0,7.0,31,-99.99,,,-99.99,,2013-04-21 04:32:00,
2013-04-20 21:42:00,55.0,26.0,-100.00,NE,37,6.0,8.0,33,-99.99,,,-99.99,,2013-04-21 04:42:00,
2013-04-20 21:52:00,55.0,26.0,-100.00,NE,46,6.0,9.0,33,-99.99,,,-99.99,,2013-04-21 04:52:00,
2013-04-20 22:02:00,54.0,26.0,-100.00,NE,43,7.0,10.0,34,-99.99,,,-99.99,,2013-04-21 05:02:00,
2013-04-20 22:12:00,53.0,27.0,-100.00,NE,43,7.0,10.0,36,-99.99,,,-99.99,,2013-04-21 05:12:00,
2013-04-20 22:22:00,53.0,27.0,-100.00,NE,41,8.0,12.0,36,-99.99,,,-99.99,,2013-04-21 05:22:00,
2013-04-20 22:32:00,53.0,27.0,-100.00,NE,37,8.0,11.0,36,-99.99,,,-99.99,,2013-04-21 05:32:00,
2013-04-20 22:42:00,52.0,27.0,-100.00,NE,44,8.0,11.0,37,-99.99,,,-99.99,,2013-04-21 05:42:00,
2013-04-20 22:52:00,52.0,27.0,-100.00,NE,34,6.0,8.0,38,-99.99,,,-99.99,,2013-04-21 05:52:00,
2013-04-20 23:01:00,51.0,27.0,-100.00,NE,43,6.0,8.0,39,-99.99,,,-99.99,,2013-04-21 06:01:00,
2013-04-20 23:12:00,51.0,28.0,-100.00,NE,38,5.0,7.0,40,-99.99,,,-99.99,,2013-04-21 06:12:00,
2013-04-20 23:21:00,50.0,27.0,-100.00,NE,39,5.0,7.0,41,-99.99,,,-99.99,,2013-04-21 06:21:00,
2013-04-20 23:32:00,50.0,28.0,-100.00,NE,45,5.0,7.0,42,-99.99,,,-99.99,,2013-04-21 06:32:00,
2013-04-20 23:42:00,50.0,28.0,-100.00,NNE,31,5.0,7.0,42,-99.99,,,-99.99,,2013-04-21 06:42:00,
2013-04-20 23:51:00,50.0,28.0,-100.00,NE,45,7.0,10.0,43,-99.99,,,-99.99,,2013-04-21 06:51:00,